RH
17 17 17 17 16 16 16 17 16 17 17 16 17 15 14 14 15 14 13 14 13 22 29 28 26 23 22 22 25 31 34 32 32 36 37 41 43 42 44 43 43 41 38 39 40 38 37 37 36 34 32 30 28 26 23 18 17 20 22 23 24 24 24 26 28 28 29 30 31 32 33 35 38 41 42 43 46 49 45 39 38 38 39 40 42 43 42 41 42 44 44 44 43 38 34 32 25
18 18 17 17 17 17 17 17 16 17 16 16 16 15 14 14 15 13 12 14 14 23 29 29 29 26 25 26 29 31 35 37 37 40 43 44 43 43 44 43 44 41 38 40 40 38 37 38 37 34 32 30 28 26 21 17 17 20 22 24 25 24 25 26 28 29 30 32 34 35 35 37 40 43 42 44 47 50 49 43 39 38 39 39 41 43 42 40 41 43 43 42 40 37 34 32 26
18 18 18 17 17 17 17 16 15 16 15 14 14 14 15 13 13 12 13 17 19 25 27 28 30 28 26 28 31 31 37 42 42 44 45 44 44 45 44 44 43 41 40 40 39 37 37 38 35 33 32 31 28 24 19 16 17 20 22 25 25 25 25 27 30 33 35 37 40 41 40 41 44 46 45 47 49 51 51 47 41 38 39 39 40 43 44 41 41 42 41 38 36 36 34 31 27
17 17 16 16 16 16 17 15 14 14 13 13 12 13 14 12 12 11 13 18 21 23 25 29 31 30 28 31 35 35 40 44 44 45 45 45 45 46 45 45 42 40 40 40 38 37 37 36 33 33 33 31 28 23 18 17 17 19 22 24 25 25 26 30 34 37 39 41 43 45 46 47 50 52 50 49 50 52 53 50 45 40 40 40 40 43 45 43 41 42 41 36 34 36 33 29 28
16 16 15 14 15 15 16 15 16 14 12 13 12 12 13 12 12 11 12 15 19 22 26 32 32 32 33 38 40 36 40 43 44 44 45 45 43 44 45 44 41 41 41 40 38 37 37 34 33 35 33 31 28 23 19 17 17 19 22 24 25 26 28 32 36 38 40 41 44 46 48 49 52 55 53 50 50 52 54 53 49 43 41 41 40 41 45 45 43 42 40 33 32 35 32 28 27
14 14 13 13 14 14 15 14 15 14 12 12 12 11 12 12 12 12 14 17 24 28 31 34 33 34 37 42 43 40 42 42 43 44 45 44 40 41 43 43 42 41 42 40 37 37 36 33 35 37 34 31 28 24 21 18 17 18 20 23 24 27 28 33 37 38 40 42 43 46 48 49 52 56 54 52 51 52 55 54 51 47 43 42 41 40 43 46 42 38 35 30 30 33 32 28 25
11 11 12 12 13 14 14 13 13 12 12 12 11 11 11 12 12 12 15 19 27 33 35 37 35 37 41 43 42 42 43 42 42 42 41 41 40 40 40 41 40 41 42 39 37 36 36 35 38 38 35 30 27 25 23 20 17 17 19 21 23 26 29 32 36 38 41 43 43 46 48 49 52 57 55 52 51 52 55 55 52 50 47 43 42 41 38 37 35 31 28 27 29 31 32 31 27
8 9 10 10 11 12 12 13 11 11 11 11 11 11 11 11 11 12 14 16 21 31 38 40 36 38 43 43 41 43 43 41 40 38 38 40 42 42 41 40 40 41 40 39 38 38 39 39 41 40 36 31 28 27 25 22 18 16 17 19 23 26 29 31 35 38 41 43 44 46 48 50 53 58 57 54 53 52 54 55 52 50 48 44 39 38 32 27 28 28 26 27 29 30 32 34 33
7 7 9 8 9 10 10 10 9 10 10 10 10 10 11 11 12 11 13 15 16 27 38 40 36 37 43 43 42 45 43 40 38 36 37 40 44 44 42 40 39 41 41 40 40 42 43 43 43 41 37 34 31 30 28 25 20 17 16 18 22 25 29 32 34 38 41 43 45 48 50 52 56 59 58 56 54 52 54 55 52 48 45 42 35 31 28 24 26 29 30 30 30 31 34 36 37
7 7 8 8 8 8 8 7 7 8 8 9 10 11 12 12 12 11 12 13 14 26 38 40 37 37 42 43 43 44 42 39 37 37 38 39 42 42 42 41 39 39 40 40 42 44 44 42 42 41 38 36 34 33 31 28 23 19 16 16 21 25 29 31 34 38 41 44 47 51 53 55 58 59 59 57 54 50 53 54 52 48 44 41 36 31 29 27 26 28 33 35 32 32 34 37 38
9 9 8 8 8 8 7 7 7 7 7 7 9 11 12 11 10 10 11 11 13 28 38 39 39 39 42 44 43 43 41 39 38 38 39 39 39 38 40 41 38 36 37 38 39 41 40 40 41 40 38 37 36 35 32 30 25 21 18 18 20 24 28 31 34 40 43 46 50 55 57 57 59 60 59 57 53 49 52 53 51 48 44 42 39 34 33 32 29 29 34 37 36 34 35 37 40
10 11 9 9 8 8 8 7 7 7 7 7 9 10 10 10 9 8 10 10 14 30 37 38 40 39 39 42 43 42 41 40 39 38 39 39 39 37 38 39 36 33 33 35 37 39 39 39 40 38 37 36 36 35 33 31 27 22 20 19 20 23 27 29 35 42 47 49 54 58 59 59 60 60 60 58 53 49 51 53 51 47 44 42 41 37 35 35 34 34 36 38 38 37 36 38 41
12 12 10 9 9 8 8 8 8 8 8 9 10 10 10 9 8 9 10 11 17 29 36 37 39 38 38 41 44 43 41 40 40 39 40 40 40 40 39 38 35 32 34 36 37 39 39 39 38 36 35 36 36 34 34 32 29 24 21 20 20 22 24 30 39 48 52 54 57 59 60 61 62 61 60 59 56 51 52 53 49 45 43 42 42 40 38 36 38 41 41 38 38 40 40 39 41
12 13 11 11 10 9 9 8 9 8 9 10 10 10 9 10 13 13 11 13 19 29 35 36 36 37 39 41 44 43 40 40 40 41 41 40 41 42 39 37 35 34 36 35 35 37 38 37 36 35 35 36 36 35 34 32 29 26 24 22 21 22 26 35 44 51 55 57 58 58 60 61 61 61 60 60 57 53 53 53 48 44 42 41 40 40 40 38 40 46 47 43 39 40 42 42 42
12 13 12 12 11 10 10 9 8 8 10 10 11 10 9 15 22 19 13 15 24 32 35 35 34 34 37 39 42 43 39 38 40 42 43 42 42 41 38 36 33 34 35 34 34 36 35 34 34 34 36 36 36 35 33 31 29 28 27 24 23 24 31 42 47 51 55 57 59 59 60 59 59 61 60 59 57 54 54 52 47 43 41 38 37 38 40 40 43 48 51 49 44 41 43 45 45
12 12 12 13 12 11 10 10 9 10 11 11 11 11 9 18 26 20 15 19 30 36 32 33 33 30 34 37 40 42 38 37 39 42 43 42 43 42 39 36 34 35 35 36 37 35 33 33 35 35 36 37 37 35 33 32 29 28 26 26 26 28 38 47 45 49 53 55 58 58 59 58 58 59 59 59 57 54 54 51 47 44 40 36 35 36 39 41 44 50 53 52 50 45 44 46 47
12 12 13 14 12 12 11 10 10 11 12 11 12 14 11 18 28 26 23 25 32 35 32 33 32 29 34 38 38 39 38 38 40 42 43 41 43 44 42 39 38 38 39 39 36 34 33 35 36 36 37 38 37 35 34 33 31 29 28 28 30 31 41 47 43 45 52 56 58 58 58 58 58 59 60 59 56 53 54 51 47 45 41 38 37 35 37 41 44 50 54 55 54 51 48 47 48
11 12 13 14 13 12 12 11 11 12 13 12 14 16 14 19 28 29 30 31 33 34 33 33 33 32 36 37 37 39 38 38 40 42 42 41 43 44 43 42 42 44 44 40 35 33 34 35 36 37 37 38 38 37 37 37 35 34 32 31 32 34 38 42 43 45 51 56 58 58 58 58 58 60 59 57 54 53 53 50 47 46 44 43 39 34 35 38 42 47 54 57 57 55 53 50 49
12 13 13 14 14 12 12 11 12 14 15 14 16 18 17 21 28 29 30 32 32 33 33 34 34 35 37 37 39 40 37 38 40 42 41 42 44 45 45 46 48 50 47 42 37 36 35 35 36 36 37 38 39 39 40 41 39 39 37 35 34 35 34 36 40 43 47 50 51 53 54 54 56 56 55 53 52 53 53 52 49 47 46 46 42 38 35 35 38 44 51 56 58 58 58 55 52
13 12 12 15 15 13 14 13 14 16 17 16 17 19 19 23 29 30 30 31 30 31 33 33 33 35 36 38 41 40 37 39 41 41 42 43 46 47 48 51 53 52 47 43 42 40 38 37 36 36 37 38 40 41 44 44 42 41 40 38 35 34 33 32 35 37 39 41 44 48 50 52 53 54 52 50 50 51 53 54 53 51 47 45 43 42 37 32 34 40 47 53 56 59 60 59 56
13 12 13 16 16 15 15 14 16 17 18 18 17 19 18 22 29 32 33 32 29 30 32 33 33 33 34 39 42 40 40 40 41 42 43 45 47 49 50 54 55 52 48 46 45 44 41 40 39 39 39 40 42 46 47 46 44 42 41 39 37 36 34 33 34 36 37 38 42 47 50 52 53 52 50 48 48 49 51 53 54 53 50 45 42 41 39 35 33 35 43 49 53 56 59 60 60
13 13 14 16 16 16 16 15 17 19 19 18 17 18 18 24 32 34 34 30 27 30 34 36 36 32 31 38 43 42 41 41 42 43 45 47 48 49 51 54 55 53 52 50 48 46 44 43 43 44 44 44 46 47 47 45 44 44 42 40 39 37 37 36 37 38 40 41 43 46 49 52 53 53 50 48 47 47 48 49 51 52 51 48 44 41 40 38 36 35 37 43 50 54 56 59 61
11 13 14 16 17 16 17 17 18 20 20 19 18 18 20 31 38 37 35 30 29 33 36 40 40 36 37 44 46 44 42 41 43 45 47 49 50 52 54 55 55 55 54 52 50 48 44 44 46 48 49 48 48 47 46 45 45 45 44 43 42 41 41 41 41 42 43 43 43 45 49 53 58 57 55 55 52 50 51 51 53 54 54 53 50 46 43 41 40 38 37 38 44 51 56 58 60
11 12 13 16 17 16 17 17 19 21 21 20 18 18 21 31 39 39 36 33 33 35 38 42 43 43 47 50 49 46 44 43 45 46 48 49 52 56 57 58 58 57 56 54 52 49 45 44 46 48 48 47 47 47 47 47 47 48 48 49 48 46 47 48 47 47 45 44 45 49 54 58 61 61 61 63 60 57 57 57 59 60 59 56 53 51 49 46 43 42 42 40 39 44 54 59 62
11 12 13 15 16 15 16 18 20 20 21 20 19 24 27 33 39 39 38 38 40 40 40 44 46 48 50 52 51 49 47 45 45 47 48 48 53 59 59 59 60 59 57 56 55 53 50 47 46 45 45 45 46 47 47 48 51 52 52 52 51 51 51 52 53 54 52 49 50 54 59 62 63 63 64 64 63 62 62 62 62 62 62 60 59 57 55 52 49 47 48 47 42 41 48 57 62
11 11 12 15 15 14 15 17 20 20 21 19 23 34 37 38 40 38 41 43 43 43 42 45 48 50 51 52 53 52 50 47 47 49 49 48 52 58 59 58 59 58 57 57 56 53 50 49 49 46 44 45 47 49 49 50 52 53 53 53 52 52 52 54 56 59 58 57 55 56 59 62 63 63 63 63 62 63 63 63 63 62 61 60 60 61 60 57 55 53 54 53 49 43 43 52 60
11 11 11 14 14 13 13 16 20 21 21 19 25 37 36 35 38 37 41 43 44 45 45 46 49 53 53 53 56 55 52 51 51 52 51 51 55 60 59 58 60 58 57 57 55 51 49 50 51 47 44 46 49 50 49 49 50 51 52 53 54 54 53 54 55 57 58 59 59 59 60 61 62 62 62 61 60 60 60 59 59 57 56 55 56 57 58 59 58 56 56 56 54 49 43 46 55
11 11 12 12 13 12 12 16 19 20 21 19 25 36 33 31 34 35 41 44 44 46 47 48 52 57 55 53 56 55 55 56 54 54 54 55 60 62 59 60 61 59 58 57 53 50 48 49 50 47 46 48 50 50 50 49 49 51 52 54 56 57 56 55 55 56 57 58 58 58 59 59 59 59 59 58 56 54 53 52 51 49 47 47 48 50 52 55 58 56 54 55 57 57 53 49 53
10 12 12 12 11 11 12 14 19 20 20 20 24 33 30 27 32 37 43 46 45 47 49 51 55 58 56 55 54 55 60 64 61 59 61 63 63 60 57 57 59 58 57 56 54 51 49 49 51 49 48 49 51 51 50 50 50 53 55 56 58 58 58 57 56 56 55 55 55 54 54 55 55 55 53 51 48 45 44 43 42 41 41 40 42 44 47 50 54 56 55 54 55 59 61 58 58
11 12 14 14 12 11 12 14 18 20 20 21 25 28 24 25 33 40 44 47 48 52 55 56 58 58 57 58 57 60 67 69 69 71 72 70 64 59 57 58 59 59 57 56 57 55 51 50 52 51 50 52 54 53 51 51 53 54 56 57 57 56 56 55 54 53 52 51 51 51 51 52 51 49 45 42 40 39 39 38 38 39 40 41 44 45 46 48 51 53 55 55 55 57 59 61 63
12 13 14 15 14 12 12 15 18 19 20 23 25 23 21 27 38 43 47 52 56 60 61 59 59 62 63 62 64 72 74 70 73 76 72 69 66 63 64 66 66 65 62 60 60 57 53 53 54 55 55 55 55 54 53 51 52 53 53 54 53 53 53 51 50 50 49 48 49 50 50 48 46 42 40 39 39 40 40 40 40 41 44 47 51 52 49 48 50 50 51 53 55 57 58 61 64
13 15 16 15 15 13 12 16 18 19 20 22 23 22 21 29 39 45 53 63 65 64 67 65 61 68 74 70 73 81 77 71 72 69 63 64 67 67 69 71 70 69 67 64 62 58 54 55 57 57 57 57 57 54 52 50 49 50 50 50 50 50 50 48 47 47 48 49 49 48 46 44 42 40 40 40 41 41 42 43 42 42 44 47 50 51 49 47 49 50 50 51 54 60 63 65 64
15 16 18 16 14 13 12 15 17 18 19 20 21 21 24 31 39 45 54 65 67 63 71 75 67 69 76 74 75 79 75 71 69 64 60 63 67 68 69 69 67 69 69 67 67 64 59 58 60 60 59 59 57 52 49 48 47 47 47 48 48 48 47 47 46 48 48 48 46 44 42 42 41 40 39 38 39 40 41 43 44 42 42 43 43 44 42 42 45 47 49 51 55 60 64 66 65
17 17 18 16 15 13 12 14 16 19 19 20 22 22 28 35 39 45 49 56 64 66 70 77 75 71 73 75 76 73 69 67 66 63 61 63 65 66 65 64 63 67 70 70 70 67 64 63 64 65 63 60 56 50 48 47 46 46 47 47 48 48 47 47 47 47 46 44 42 41 41 42 41 40 38 36 36 37 39 42 44 43 41 41 40 40 38 37 39 42 44 47 51 55 58 60 60
18 18 18 16 16 13 13 14 15 18 19 20 22 23 32 38 38 43 45 46 57 66 67 73 81 79 73 75 77 73 68 64 62 59 58 62 63 63 64 62 62 67 71 71 68 65 63 63 66 67 64 59 53 50 48 48 47 47 47 47 48 48 46 46 46 45 44 42 43 43 43 43 41 38 37 36 35 35 37 38 39 38 37 38 38 38 38 37 38 38 40 41 44 47 50 53 55
17 18 16 16 16 13 13 14 15 19 20 24 27 26 32 39 40 43 45 45 49 57 61 63 70 76 76 75 74 73 70 64 61 58 56 59 61 62 63 61 63 69 73 72 68 65 62 61 64 65 62 57 52 50 49 49 49 48 48 48 49 47 45 45 44 43 44 43 44 44 44 43 40 37 36 36 34 33 33 34 34 34 34 36 37 39 41 41 40 39 39 39 41 43 45 48 51
18 18 16 16 15 14 13 12 17 20 22 31 35 32 34 39 42 43 43 44 46 50 55 56 58 63 70 74 72 70 69 66 67 65 60 60 61 61 63 65 68 72 74 73 71 69 65 61 61 61 59 56 53 51 50 50 49 47 48 49 48 45 44 44 44 44 44 43 43 43 42 40 38 36 35 34 32 32 31 32 33 33 34 36 38 41 42 42 42 41 40 40 41 43 46 48 50
18 18 17 17 15 15 14 13 21 22 21 32 37 35 39 40 41 45 43 41 43 47 49 52 56 56 59 71 77 74 70 69 71 69 62 60 60 60 63 67 69 72 74 73 71 68 64 60 59 59 58 57 55 52 51 50 50 50 49 48 47 46 44 44 44 43 42 41 41 40 38 37 36 34 34 33 32 31 32 33 34 34 35 37 39 40 40 42 43 43 44 44 45 46 49 50 52
19 18 18 17 15 15 15 17 26 25 20 29 36 36 40 40 41 48 50 43 40 45 48 51 57 59 62 72 82 81 76 77 75 69 63 59 59 60 61 64 66 68 69 68 67 66 63 61 59 59 59 57 57 56 56 55 55 53 51 49 47 45 44 42 41 41 39 39 38 37 37 36 35 35 34 34 32 31 32 33 35 36 38 39 40 39 39 42 45 45 47 48 49 50 51 52 55
19 18 18 17 16 15 15 20 29 28 23 28 33 36 38 39 40 46 53 49 43 47 53 55 58 63 67 74 84 83 81 85 80 69 64 61 61 62 60 61 65 65 64 64 64 64 62 61 61 60 60 60 60 60 59 58 55 53 49 46 44 42 40 39 38 38 38 37 37 37 37 36 35 35 35 34 34 33 34 35 36 37 39 40 41 40 41 43 45 46 47 48 48 50 51 52 55
20 19 17 17 17 16 16 23 29 28 26 27 26 29 36 39 40 45 50 50 49 53 57 57 59 63 65 74 83 80 78 83 79 70 67 65 63 64 61 59 63 64 64 64 63 62 62 61 61 60 61 62 61 58 56 53 51 48 44 40 39 39 39 39 38 37 37 36 35 35 35 35 34 35 34 35 35 35 36 36 37 37 39 39 40 40 41 42 43 44 45 45 45 47 48 50 52
21 20 18 17 17 16 19 25 26 23 24 28 22 22 35 43 43 48 50 49 53 58 59 58 60 63 65 76 81 76 78 78 75 74 71 67 65 64 61 58 61 62 61 62 59 59 60 61 62 61 59 58 55 53 50 48 45 43 42 41 41 42 40 40 39 38 37 36 35 35 35 35 35 35 36 35 36 36 37 37 37 38 38 38 38 39 40 40 41 41 40 40 40 41 43 44 46
21 20 18 17 17 16 19 21 21 19 22 28 24 21 39 52 49 50 49 49 57 61 61 59 61 61 63 75 77 76 84 77 70 77 74 69 69 68 64 61 63 64 59 57 55 56 59 62 63 60 56 53 51 50 47 47 47 45 45 45 44 43 41 40 39 39 39 38 38 37 37 37 36 36 36 37 38 39 39 39 40 40 40 39 38 39 40 39 38 38 36 36 36 36 37 38 40
19 21 20 18 17 16 18 18 19 20 20 25 27 25 38 52 52 50 46 49 59 62 61 59 61 61 59 69 76 79 85 74 68 78 76 71 73 72 69 65 65 65 60 58 58 58 61 64 64 61 57 55 54 52 51 51 51 49 46 44 43 42 41 40 40 40 40 40 39 39 38 37 36 36 36 37 38 39 40 40 41 42 42 41 39 39 39 37 37 36 34 34 34 34 33 34 36
19 21 21 19 18 17 18 18 19 22 19 20 27 28 30 41 49 50 45 48 57 59 58 57 60 64 64 69 75 79 83 73 69 79 77 72 74 74 69 65 67 67 66 66 64 63 63 64 63 62 60 58 58 57 55 53 51 48 45 43 42 42 41 42 42 42 42 41 41 40 39 38 37 37 36 37 38 38 39 40 41 42 42 41 39 38 37 36 36 34 33 33 33 33 33 32 33
19 20 22 21 20 20 21 20 19 22 22 20 26 28 24 33 50 54 49 48 50 50 54 56 60 67 72 75 75 76 79 71 70 81 80 73 75 76 70 64 65 68 69 69 66 63 62 62 62 60 59 59 58 56 53 51 48 46 44 43 42 43 43 43 43 43 42 42 41 40 40 39 38 38 37 38 38 37 38 39 40 41 41 40 39 38 36 36 37 35 33 32 32 33 33 33 33
20 20 21 22 22 23 23 24 22 22 24 21 23 28 22 27 44 51 46 41 38 40 48 54 59 67 71 74 75 75 74 69 71 82 83 77 76 77 71 65 63 65 68 68 66 63 60 59 58 56 56 56 55 54 51 48 46 44 44 43 43 43 43 43 42 43 42 41 41 40 40 38 37 36 36 36 36 36 36 37 38 39 39 38 38 36 35 35 36 35 34 34 33 33 33 33 33
21 19 21 23 24 25 25 26 25 23 24 22 21 27 23 22 34 40 35 33 33 35 40 46 53 63 70 71 73 74 73 71 73 79 81 78 76 75 71 69 67 66 65 64 65 65 64 62 58 54 53 53 52 51 49 48 45 43 43 42 41 41 42 42 42 42 41 40 39 38 37 36 35 34 33 33 34 34 34 34 35 37 38 38 38 36 34 35 35 35 36 36 35 35 35 34 34
22 20 21 24 25 27 27 27 26 25 25 25 23 28 28 25 31 37 33 32 35 36 38 41 46 56 68 72 72 74 75 75 78 79 80 80 79 77 75 74 74 71 66 64 63 66 69 69 66 61 57 54 53 51 49 48 45 43 43 41 41 41 41 40 40 40 38 36 36 35 35 34 33 32 31 31 31 31 32 33 34 36 38 39 39 38 38 38 38 36 36 37 36 36 37 36 36
23 22 22 23 25 29 30 27 27 26 26 28 27 29 34 33 34 37 35 33 34 38 42 45 48 54 65 70 71 74 77 79 82 83 84 85 82 79 76 74 74 71 68 66 65 66 67 68 68 66 62 58 56 54 51 48 46 44 44 43 42 41 41 40 38 38 36 34 34 34 34 34 34 33 32 31 30 30 32 33 34 36 37 38 39 39 40 40 40 39 38 38 37 37 37 37 37
23 23 21 22 23 25 26 23 24 27 29 33 34 32 37 40 40 41 38 35 35 39 45 51 55 60 65 68 71 75 79 82 85 84 84 85 81 77 73 70 69 68 67 66 65 66 67 66 65 64 63 61 59 56 52 48 47 46 45 44 43 42 41 39 37 36 35 35 34 34 34 35 35 35 34 34 33 33 34 34 34 36 37 38 38 39 39 39 39 39 39 39 39 38 37 37 37
24 23 22 23 23 23 25 24 25 28 30 34 38 41 43 44 45 44 39 38 38 42 49 53 58 62 66 70 73 75 78 80 84 86 86 84 79 74 71 69 66 65 64 63 63 65 66 66 65 63 61 59 58 55 52 50 51 51 49 47 45 43 41 39 37 36 35 35 35 35 36 37 37 38 37 36 35 35 35 35 35 36 37 38 38 38 37 37 36 36 36 37 37 36 36 36 37
25 25 24 24 23 24 27 28 29 29 26 32 41 49 53 49 48 48 44 44 45 46 50 52 55 61 66 71 74 74 73 73 79 85 85 84 78 72 70 69 66 63 63 63 63 64 66 67 66 62 59 55 53 52 52 54 55 54 50 47 45 44 41 39 37 36 36 36 37 38 39 40 40 39 38 37 36 35 35 35 35 36 36 37 36 36 35 35 35 35 35 35 35 35 35 35 36
24 25 25 24 24 25 26 27 31 28 25 35 47 54 56 53 52 52 49 51 52 49 51 51 53 57 61 67 70 71 70 71 76 80 81 81 77 70 68 68 67 66 65 64 65 66 67 67 65 61 58 55 52 52 53 55 56 54 50 47 45 42 39 38 37 36 37 38 40 41 41 41 41 40 39 39 37 37 36 36 36 36 37 37 37 36 36 36 36 36 36 36 36 36 36 36 35
25 24 23 24 24 25 26 27 30 29 28 38 52 58 54 49 52 53 48 50 50 47 49 50 50 52 56 61 66 67 69 71 74 78 79 79 76 71 68 67 68 67 65 67 69 68 66 66 65 63 61 60 59 58 57 56 55 52 49 48 45 42 39 37 37 38 40 41 42 43 42 41 41 41 41 41 40 39 38 38 39 38 38 38 38 38 37 37 36 36 36 36 36 36 36 36 36
28 26 24 24 24 24 26 26 26 28 30 37 50 59 52 42 45 49 44 44 44 44 46 46 46 50 54 60 64 65 68 69 71 75 77 75 74 72 68 67 69 67 66 69 71 71 68 67 67 66 64 64 63 62 61 61 59 55 51 50 48 45 42 40 41 42 44 44 44 43 43 42 42 42 43 43 43 42 41 41 41 41 41 40 40 39 38 37 37 36 36 36 36 36 36 36 36
30 29 27 26 26 25 25 25 25 27 31 36 40 45 45 39 39 41 39 39 41 42 44 44 45 49 56 61 63 65 68 68 68 70 71 70 72 71 69 69 70 69 69 70 70 71 71 68 67 66 65 65 64 63 62 64 64 60 54 52 51 49 47 46 45 46 45 44 44 43 43 43 43 43 44 44 45 45 44 44 43 43 43 42 41 40 38 38 37 37 37 36 36 36 36 36 36
29 29 28 26 26 26 25 26 28 28 32 38 36 33 36 40 40 39 38 38 39 42 43 44 46 50 57 63 64 65 67 67 66 67 69 71 72 72 71 71 71 70 70 68 67 69 69 68 66 64 64 65 66 65 64 65 66 63 58 55 54 52 51 50 48 47 45 44 43 43 43 43 44 44 45 46 47 47 46 45 44 44 43 42 41 40 38 37 37 36 36 36 36 36 36 36 36